Date,TemperatureHighF,TemperatureAvgF,TemperatureLowF,DewpointHighF,DewpointAvgF,DewpointLowF,HumidityHigh,HumidityAvg,HumidityLow,PressureMaxIn,PressureMinIn,WindSpeedMaxMPH,WindSpeedAvgMPH,GustSpeedMaxMPH,PrecipitationSumIn
2013-9-1,87,78,72,75,72,70,97,84,68,29.84,29.76,4,0,0,0.45
2013-9-2,84,76,73,75,72,71,95,88,65,29.78,29.69,4,0,0,0.17
2013-9-3,83,75,68,72,66,58,98,76,47,29.87,29.70,9,1,0,0.02
2013-9-4,82,72,62,61,59,55,87,66,47,29.99,29.87,7,2,0,0.00
2013-9-5,80,70,61,62,54,44,85,61,33,30.13,29.92,8,2,0,0.00
2013-9-6,74,63,53,49,46,42,74,55,35,30.25,30.12,6,1,0,0.00
2013-9-7,80,66,50,55,50,47,92,60,33,30.12,29.89,7,1,0,0.00
2013-9-8,82,72,63,67,58,47,81,62,40,30.06,29.80,8,2,0,0.00
2013-9-9,74,65,54,60,52,45,78,64,51,30.23,30.06,6,1,0,0.00
2013-9-10,87,76,66,74,69,60,88,78,64,30.15,30.02,7,1,0,0.00
2013-9-11,94,84,74,78,74,72,93,75,56,30.10,29.94,9,1,0,0.00
2013-9-12,86,77,69,75,71,67,96,82,68,29.97,29.65,8,1,0,0.77
2013-9-13,77,68,59,68,61,50,97,77,54,29.84,29.63,11,2,0,0.11
2013-9-14,67,58,50,50,48,46,88,69,53,30.12,29.85,10,3,0,0.00
2013-9-15,73,60,46,54,48,43,92,67,40,30.22,30.07,7,1,0,0.00
2013-9-16,74,63,57,58,55,50,92,75,49,30.22,30.02,7,1,0,0.04
2013-9-17,67,56,48,51,41,37,79,58,36,30.43,30.22,13,2,0,0.00
2013-9-18,72,58,43,54,46,41,94,69,38,30.34,30.18,8,1,0,0.00
2013-9-19,78,62,48,57,51,47,93,70,39,30.19,30.05,4,0,0,0.00
2013-9-20,80,65,52,62,57,51,96,76,50,30.07,29.97,8,1,0,0.00
2013-9-21,80,67,54,67,61,52,96,81,46,30.00,29.65,7,1,0,0.28
2013-9-22,70,64,55,66,53,42,96,70,45,29.91,29.64,10,3,0,0.52
2013-9-23,67,57,49,46,43,41,77,61,46,30.04,29.91,12,2,0,0.00
2013-9-24,74,59,45,49,45,41,86,63,39,30.05,29.87,9,1,0,0.00
2013-9-25,74,61,49,51,47,44,84,63,39,29.95,29.86,4,1,0,0.00
2013-9-26,70,60,52,60,55,50,92,82,66,30.08,29.92,7,1,0,0.00
2013-9-27,70,62,53,57,53,50,92,75,55,30.25,30.08,5,0,0,0.00
2013-9-28,74,63,55,56,53,52,89,72,47,30.31,30.22,8,1,0,0.00
2013-9-29,72,61,52,59,54,49,94,79,59,30.22,30.07,6,0,0,0.00
2013-9-30,76,62,51,57,53,49,95,76,45,30.07,29.96,4,0,0,0.00